Location: Auttagershofen
(48.1940°N, 10.0237°E)
Time: 04:59:24
(UTC+00:00)

Cosmos 1461 - Visible Passes

Search period start: 21 April 2026 00:00
Search period end: 01 May 2026 00:00
Orbit: 423 x 487 km, 65.0° (Epoch: 20 April)

Date Brightness Start Highest point End Pass type
(mag) Time Alt. Az. Time Alt. Az. Time Alt. Az.
21 Apr 4.2 02:37:11 14° S 02:39:43 29° ESE 02:42:59 10° ENE visible
22 Apr 4.7 02:03:16 16° SE 02:04:46 20° ESE 02:07:31 10° ENE visible
22 Apr 3.1 03:37:11 10° WSW 03:40:49 47° NW 03:44:26 10° NNE visible
23 Apr 5.1 01:29:14 13° ESE 01:29:48 13° ESE 01:31:38 10° E visible
23 Apr 2.6 03:02:58 18° SW 03:05:38 70° NW 03:09:21 10° NE visible
24 Apr 2.6 02:28:50 32° SSW 02:30:27 78° SE 02:34:10 10° NE visible
25 Apr 3.0 01:54:35 43° SSE 01:55:16 50° ESE 01:58:53 10° NE visible
25 Apr 4.2 03:28:48 10° W 03:31:48 23° NW 03:34:48 10° NNE visible
26 Apr 3.8 01:20:16 32° ESE 01:20:16 32° ESE 01:23:26 10° NE visible
26 Apr 3.8 02:53:58 16° W 02:56:23 30° NW 02:59:43 10° NNE visible
27 Apr 4.7 00:45:51 20° E 00:45:51 20° E 00:47:47 10° ENE visible
27 Apr 3.3 02:19:33 29° W 02:20:58 42° NW 02:24:31 10° NNE visible
28 Apr 5.4 00:11:20 12° E 00:11:20 12° E 00:11:47 10° ENE visible
28 Apr 2.7 01:45:02 55° W 01:45:33 63° NW 01:49:13 10° NNE visible
28 Apr 5.0 03:20:44 10° WNW 03:22:34 13° NNW 03:24:23 10° N visible
29 Apr 2.7 01:10:26 73° NE 01:10:26 73° NE 01:13:50 10° NE visible
29 Apr 4.8 02:44:28 10° WNW 02:46:55 16° NNW 02:49:21 10° N visible
30 Apr 3.7 00:35:45 38° ENE 00:35:45 38° ENE 00:38:19 10° NE visible
30 Apr 4.5 02:09:27 15° WNW 02:11:15 21° NW 02:14:09 10° NNE visible
